This is the latest recevied weather packets stored in our database for station/object KF6YUA. If no packets are shown the sender has not sent any weather packets the latest 10 day(s).
| Time | Temp. | Humidity | Pressure | Rain* | Wind** | Luminosity | Snow |
|---|---|---|---|---|---|---|---|
| 1778020256 | 17.78° C | 74% | 1017.3 hPa | 0 mm | - | 252 W/m² | - |
| 1778019953 | 18.33° C | 73% | 1017.3 hPa | 0 mm | - | 270 W/m² | - |
| 1778019649 | 18.89° C | 74% | 1017.4 hPa | 0 mm | - | 429 W/m² | - |
| 1778019346 | 18.33° C | 75% | 1017.5 hPa | 0 mm | - | 312 W/m² | - |
| 1778019042 | 18.33° C | 75% | 1017.3 hPa | 0 mm | - | 311 W/m² | - |
| 1778018739 | 18.33° C | 74% | 1017.3 hPa | 0 mm | - | 395 W/m² | - |
| 1778018437 | 18.89° C | 74% | 1017.2 hPa | 0 mm | - | 368 W/m² | - |
| 1778018135 | 18.89° C | 73% | 1017.4 hPa | 0 mm | - | 385 W/m² | - |
| 1778017833 | 18.89° C | 74% | 1017.6 hPa | 0 mm | - | 423 W/m² | - |
| 1778017531 | 18.33° C | 73% | 1017.5 hPa | 0 mm | - | 394 W/m² | - |
| 1778017227 | 18.89° C | 72% | 1017.4 hPa | 0 mm | - | 330 W/m² | - |
| 1778016925 | 18.33° C | 72% | 1017.5 hPa | 0 mm | - | 352 W/m² | - |
| 1778016621 | 18.33° C | 76% | 1017.5 hPa | 0 mm | - | 421 W/m² | - |
| 1778016318 | 17.78° C | 74% | 1017.6 hPa | 0 mm | - | 328 W/m² | - |
| 1778016015 | 18.89° C | 73% | 1017.7 hPa | 0 mm | - | 343 W/m² | - |
| 1778015712 | 18.33° C | 76% | 1017.6 hPa | 0 mm | - | 269 W/m² | - |
| 1778015409 | 18.33° C | 76% | 1017.7 hPa | 0 mm | - | 240 W/m² | - |
| 1778015105 | 17.78° C | 75% | 1017.6 hPa | 0 mm | - | 246 W/m² | - |
| 1778014802 | 17.78° C | 75% | 1017.8 hPa | 0 mm | - | 261 W/m² | - |
| 1778014501 | 17.22° C | 76% | 1017.7 hPa | 0 mm | - | 252 W/m² | - |
| 1778014197 | 17.22° C | 76% | 1017.9 hPa | 0 mm | - | 248 W/m² | - |
| 1778013895 | 17.78° C | 75% | 1017.8 hPa | 0 mm | - | 239 W/m² | - |
| 1778013592 | 17.22° C | 77% | 1017.9 hPa | 0 mm | - | 229 W/m² | - |
| 1778013288 | 17.22° C | 76% | 1017.8 hPa | 0 mm | - | 214 W/m² | - |
| 1778012985 | 17.22° C | 78% | 1017.8 hPa | 0 mm | - | 236 W/m² | - |
* Rain latest hour (hover to see other rain measurements)
** Current wind speed in m/s (hover to see current wind gust speed)